Temp
2 2 3 3 3 3 3 3 3 3 3 3 3 3 3 3 3 2 2 2 2 2 2 2 2 3 3 3 3 3 3 4 4 4 4 4 4 4 4 4 4 4 4 4 4 4 5 5 5 5 5 5 5 5 5 5 4 4 4 5 5 5 5 5 5 6 6 6 7 7 6 6 7 7 7 7 7 8 8 8 8 8 8 9 9 9
2 2 2 2 2 2 2 2 2 2 2 2 2 2 2 2 2 2 2 2 2 2 2 2 3 3 3 3 3 3 3 3 3 3 3 3 3 3 4 4 4 4 4 4 4 4 4 4 5 5 5 5 5 5 5 5 5 5 5 5 5 5 5 5 5 5 5 6 6 6 6 6 6 7 7 7 7 7 7 7 8 8 8 8 8 9
2 2 2 2 2 2 2 2 2 2 2 2 2 2 2 2 1 1 1 2 2 2 2 3 3 3 3 3 3 3 3 3 3 3 3 3 3 3 3 4 4 4 4 4 4 4 4 4 4 4 5 5 5 5 5 5 5 5 5 5 5 5 5 5 5 5 5 5 5 5 6 6 6 6 6 6 7 7 7 8 8 8 8 8 8 8
1 1 1 1 1 1 2 2 2 2 2 2 2 1 1 1 1 1 1 2 2 2 3 3 3 3 3 2 2 2 2 3 3 3 3 3 3 3 3 3 3 3 3 3 3 3 4 4 4 4 4 4 4 4 4 4 4 4 5 5 4 4 4 5 5 5 5 5 5 5 6 6 6 6 6 7 7 7 7 8 8 8 8 8 8 8
1 1 1 1 1 1 2 2 2 1 1 1 1 1 1 1 1 1 2 2 2 2 2 2 2 2 2 2 2 2 2 3 3 3 3 3 3 3 3 3 3 3 3 3 3 3 3 3 4 4 4 4 4 4 4 4 4 4 4 4 4 4 4 5 5 5 5 5 5 5 5 6 6 6 7 7 7 7 7 7 7 8 8 8 8 8
1 1 1 1 1 1 1 1 1 1 1 1 1 1 1 1 1 1 1 2 2 2 2 2 2 2 2 2 2 2 2 2 3 3 3 3 3 3 3 3 3 3 3 3 3 3 3 3 3 3 4 4 4 4 3 3 3 3 4 4 4 4 4 4 5 5 5 4 5 5 5 5 6 6 7 7 6 6 6 7 7 7 8 8 8 8
1 1 1 1 1 1 1 1 1 1 1 1 1 1 1 1 1 1 1 1 1 1 1 2 2 2 2 2 2 2 2 2 2 2 2 2 2 2 2 2 2 2 2 2 2 2 3 3 3 3 3 3 3 3 3 3 3 3 4 4 4 4 4 4 4 4 4 4 4 4 5 5 6 6 6 6 6 6 6 6 7 7 7 8 8 8
0 0 0 1 1 0 0 1 1 1 1 1 0 0 0 0 0 1 1 1 1 1 1 2 2 2 2 2 2 2 2 2 2 2 2 2 2 2 2 2 2 2 2 2 2 2 2 2 3 3 3 3 3 3 3 3 3 4 4 4 4 5 5 4 4 4 4 4 4 4 4 5 5 6 6 6 6 6 6 7 7 7 7 7 8 8
-0 0 0 0 1 1 1 1 1 1 0 -0 -0 -1 -0 -0 0 1 1 1 1 1 2 2 2 2 2 2 2 2 2 2 2 2 2 2 1 1 1 1 1 1 1 2 2 2 2 2 2 2 2 2 2 2 3 3 4 4 4 4 4 4 4 4 4 4 4 3 4 4 4 5 5 6 6 6 6 6 6 7 7 7 7 7 8 8
0 0 1 1 1 1 1 0 -0 -0 -0 -1 -1 -1 -0 -0 0 1 1 1 1 2 2 2 2 2 2 2 2 2 2 1 1 1 1 1 1 1 1 1 1 1 1 1 2 2 2 2 2 2 2 2 3 3 4 4 4 3 3 3 3 3 4 4 4 4 4 3 4 4 4 5 5 5 5 6 6 6 6 7 7 7 7 7 8 8
1 1 1 1 1 0 -0 -1 -1 -1 -0 -0 -0 0 0 0 1 1 1 1 1 1 1 1 1 1 1 1 1 1 1 1 1 1 1 1 1 1 1 1 1 1 1 1 1 2 2 2 2 2 2 3 3 3 3 3 3 3 3 3 3 3 3 3 3 3 3 3 3 4 4 4 4 4 5 5 6 6 6 6 6 6 7 7 7 8
1 1 1 0 -0 -0 -1 -1 -0 -0 0 0 0 1 1 1 1 1 1 1 1 1 1 1 1 1 1 1 1 1 0 -0 -0 0 0 1 1 1 1 1 1 1 1 1 1 1 1 1 2 2 2 3 3 3 3 3 3 3 3 3 3 3 3 3 3 3 3 3 3 3 3 3 4 4 5 5 5 5 6 6 6 6 6 7 7 8
1 0 -0 -1 -1 -1 -1 -0 -0 0 0 0 0 1 1 1 1 0 0 0 0 1 1 1 1 1 1 1 0 -0 -1 -0 -0 0 0 1 1 0 0 0 0 0 0 0 1 1 1 1 2 2 2 2 2 2 2 2 2 2 3 3 3 3 3 3 2 3 3 3 3 3 3 3 4 4 4 4 5 5 6 6 6 6 6 7 7 8
-0 -1 -1 -1 -1 -1 -0 -0 -0 -0 -0 0 0 0 -0 -0 -0 -0 -0 0 0 0 1 1 0 0 -0 -0 -1 -1 -0 -0 0 0 0 0 0 0 0 0 0 0 0 0 0 1 1 1 1 2 2 2 2 2 2 2 2 2 3 3 3 3 2 2 2 2 2 2 2 3 3 3 3 4 4 4 4 5 5 6 6 6 6 6 7 7
-1 -1 -1 -1 -1 -0 -0 -0 -0 -0 -0 -0 -0 -1 -1 -1 -1 -0 -0 -0 0 0 -0 -0 -0 -1 -0 -0 -0 0 0 0 0 0 0 0 0 0 0 0 0 0 0 0 0 1 1 1 1 1 1 2 2 2 2 2 2 3 3 3 3 2 2 2 2 2 2 2 2 3 3 3 3 3 4 4 4 5 5 5 5 5 5 5 5 6
-1 -1 -1 -1 -1 -0 -0 -0 -1 -1 -1 -1 -1 -1 -1 -1 -1 -0 -0 -0 -1 -1 -1 -1 -1 -0 -0 0 0 0 0 0 0 0 0 0 0 0 0 0 0 0 0 0 0 1 1 1 1 1 1 1 1 2 2 2 3 3 3 3 3 2 1 1 2 2 2 3 3 3 3 3 3 3 3 3 4 4 5 5 5 4 4 4 5 5
-1 -1 -1 -1 -1 -0 -1 -1 -1 -1 -1 -1 -1 -1 -1 -1 -1 -1 -1 -1 -1 -1 -1 -1 -1 -0 -0 0 0 0 0 0 -0 -0 -0 -0 -0 -0 -0 -0 -0 0 0 0 0 1 1 1 1 1 1 1 1 2 2 2 2 2 3 3 3 2 2 2 3 3 3 3 3 3 3 3 3 3 3 3 3 4 4 4 4 4 4 4 4 5
-1 -1 -1 -1 -1 -1 -1 -1 -1 -1 -2 -2 -1 -1 -1 -1 -1 -1 -1 -1 -1 -1 -1 -1 -1 -0 -0 -0 -0 0 -0 -0 -1 -1 -1 -1 -1 -0 -0 -0 -0 -0 0 0 0 0 0 0 0 0 0 1 2 2 2 2 2 2 2 2 2 3 3 3 3 3 3 3 3 3 3 3 3 3 3 3 3 3 4 4 4 4 4 4 4 4
-1 -1 -1 -1 -1 -1 -2 -2 -2 -2 -2 -2 -1 -1 -1 -2 -2 -2 -2 -2 -2 -1 -1 -1 -1 -1 -1 -0 -0 -0 -1 -1 -1 -1 -1 -1 -1 -1 -1 -0 -0 -0 -0 0 0 0 -0 -0 -0 0 1 1 1 2 2 2 2 2 2 2 2 2 2 2 2 2 2 2 2 3 3 3 3 3 3 3 3 4 4 4 4 4 4 4 4 4
-1 -1 -1 -2 -2 -2 -2 -2 -2 -2 -2 -2 -2 -2 -2 -2 -2 -2 -2 -2 -1 -1 -1 -1 -1 -1 -1 -1 -1 -1 -1 -1 -2 -2 -2 -1 -1 -1 -1 -0 -0 -0 -0 -0 -0 -0 -0 -0 0 1 1 1 1 1 1 1 1 1 1 2 2 2 2 2 2 2 2 2 2 2 2 3 3 3 3 3 3 4 4 4 4 4 4 4 4 4
-2 -2 -2 -2 -2 -2 -2 -2 -2 -2 -2 -2 -2 -2 -3 -3 -2 -2 -2 -2 -2 -2 -1 -1 -1 -1 -1 -1 -2 -2 -2 -2 -2 -2 -2 -1 -1 -1 -1 -0 -0 -1 -1 -1 -1 -0 -0 0 0 1 1 1 1 1 1 1 1 1 1 1 1 1 1 1 2 2 2 2 2 2 2 2 2 2 2 3 3 4 4 4 4 4 4 4 4 4
-2 -2 -2 -2 -2 -2 -2 -2 -2 -2 -2 -2 -3 -3 -3 -3 -3 -2 -2 -2 -2 -2 -2 -2 -2 -2 -2 -2 -2 -2 -2 -2 -2 -2 -2 -1 -1 -1 -0 -0 -0 -1 -1 -1 -0 0 0 0 0 0 1 1 1 1 1 0 0 0 1 1 1 1 1 1 2 2 2 2 2 2 2 2 2 2 2 2 3 3 3 3 3 4 4 4 4 4
-2 -2 -2 -2 -2 -2 -2 -3 -3 -3 -3 -3 -3 -3 -3 -3 -3 -3 -3 -2 -2 -2 -2 -2 -2 -2 -2 -2 -2 -2 -2 -2 -2 -2 -2 -1 -1 -0 -0 -0 -1 -1 -1 -0 -0 0 0 0 0 0 0 1 0 0 0 0 0 0 0 0 1 1 1 1 2 2 2 2 2 2 2 2 2 2 2 2 2 3 3 3 3 3 3 3 4 4
-2 -2 -2 -2 -2 -3 -3 -3 -3 -3 -3 -3 -3 -3 -3 -3 -3 -3 -3 -3 -3 -3 -3 -3 -3 -3 -2 -2 -2 -2 -2 -2 -2 -1 -1 -1 -1 -0 -0 -1 -1 -1 -0 -0 0 0 0 0 0 0 0 0 0 -0 -0 -0 -0 0 0 0 0 1 1 1 1 2 2 2 2 2 2 2 2 2 2 2 3 3 3 3 3 3 3 3 3 3
-2 -2 -2 -3 -3 -3 -3 -3 -3 -2 -2 -2 -3 -3 -3 -3 -3 -3 -3 -3 -3 -3 -3 -3 -3 -3 -2 -2 -2 -2 -2 -1 -1 -1 -1 -1 -1 -1 -1 -1 -1 -1 -0 -0 -0 -0 -0 -0 -0 -0 -0 -0 -0 -0 -0 -0 -0 -0 -0 0 0 0 1 1 1 1 1 1 1 1 1 1 2 2 2 2 2 2 3 3 3 3 3 3 3 3
-3 -3 -3 -3 -3 -3 -3 -2 -2 -2 -2 -2 -2 -3 -3 -3 -3 -3 -3 -3 -3 -3 -3 -3 -3 -2 -2 -2 -2 -2 -2 -1 -1 -1 -2 -2 -1 -1 -1 -1 -1 -1 -0 -0 -0 -0 -0 -0 -0 -0 -0 -1 -1 -1 -1 -1 -1 -1 -0 -0 0 0 1 1 1 1 1 1 1 1 1 1 1 2 2 2 2 2 2 2 2 2 2 2 2 2
-3 -3 -3 -3 -3 -3 -3 -2 -2 -2 -2 -2 -3 -3 -3 -3 -3 -3 -3 -3 -3 -3 -3 -3 -3 -3 -2 -2 -2 -2 -2 -2 -2 -2 -2 -2 -2 -1 -1 -1 -1 -1 -1 -1 -1 -1 -1 -0 -0 -0 -1 -1 -1 -1 -1 -1 -1 -1 -1 -0 -0 0 0 0 0 0 0 1 1 1 1 1 1 2 2 2 2 2 2 2 2 2 2 2 2 2
-4 -4 -3 -3 -3 -3 -3 -3 -3 -3 -3 -3 -3 -3 -3 -3 -3 -4 -3 -3 -3 -3 -3 -3 -3 -3 -2 -2 -2 -2 -2 -2 -2 -2 -2 -2 -1 -1 -1 -1 -1 -1 -1 -1 -1 -1 -1 -0 -0 -1 -1 -1 -1 -1 -1 -1 -1 -1 -1 -1 -0 -0 -0 -0 -0 -0 0 0 0 1 1 1 1 1 1 2 2 2 2 2 2 2 2 2 2 2
-4 -4 -4 -3 -3 -3 -3 -3 -3 -3 -3 -3 -3 -3 -3 -3 -4 -4 -4 -4 -4 -4 -3 -3 -3 -3 -3 -2 -2 -2 -2 -2 -2 -2 -2 -2 -2 -2 -2 -2 -2 -2 -1 -1 -1 -1 -1 -0 -0 -0 -0 -1 -1 -1 -1 -1 -1 -1 -1 -1 -1 -1 -1 -1 -1 -0 -0 0 0 0 1 1 1 1 1 1 1 1 1 1 2 2 2 2 2 3
-4 -4 -4 -4 -4 -4 -4 -4 -4 -4 -4 -3 -3 -3 -3 -4 -4 -4 -4 -4 -4 -4 -4 -3 -3 -3 -3 -3 -2 -2 -2 -2 -2 -2 -2 -2 -2 -2 -2 -2 -2 -2 -2 -2 -1 -1 -1 -0 -0 -0 -0 -1 -1 -1 -1 -1 -1 -1 -1 -1 -1 -1 -1 -1 -1 -1 -0 -0 -0 0 0 0 1 1 1 1 1 1 1 1 2 2 2 3 3 3
-4 -4 -4 -4 -4 -4 -4 -4 -4 -4 -4 -4 -4 -4 -4 -4 -4 -4 -4 -4 -4 -4 -4 -4 -3 -3 -3 -3 -3 -3 -2 -2 -2 -2 -2 -2 -2 -2 -2 -2 -2 -2 -2 -2 -2 -1 -1 -0 -0 -0 -0 -1 -1 -1 -1 -1 -1 -1 -1 -1 -1 -1 -1 -1 -1 -1 -1 -1 -0 -0 -0 -0 0 0 0 0 1 1 1 2 2 3 3 3 3 4
-5 -4 -4 -4 -4 -4 -4 -4 -4 -4 -4 -4 -4 -4 -4 -4 -4 -4 -4 -4 -4 -4 -4 -4 -4 -4 -3 -3 -3 -3 -3 -3 -3 -3 -3 -3 -3 -3 -2 -2 -2 -2 -2 -2 -2 -2 -1 -1 -1 -0 -1 -1 -1 -1 -1 -1 -1 -1 -1 -1 -1 -1 -1 -1 -1 -1 -1 -1 -1 -1 -1 -1 -0 -0 0 0 1 1 2 2 2 3 3 3 4 4
-5 -4 -4 -4 -4 -4 -4 -4 -4 -4 -4 -4 -4 -4 -4 -4 -4 -4 -4 -4 -4 -4 -4 -4 -4 -4 -4 -4 -4 -3 -3 -3 -3 -3 -3 -3 -3 -3 -3 -3 -2 -2 -2 -2 -2 -2 -2 -1 -1 -1 -1 -1 -1 -1 -1 -1 -1 -1 -1 -1 -2 -1 -1 -1 -1 -2 -2 -2 -1 -1 -1 -1 -1 -0 0 1 1 2 2 2 2 3 3 4 4 4
-5 -5 -4 -4 -4 -4 -4 -4 -4 -4 -4 -4 -4 -4 -4 -4 -4 -4 -4 -4 -4 -4 -5 -5 -5 -4 -4 -4 -4 -4 -3 -3 -3 -3 -3 -3 -3 -3 -3 -3 -3 -2 -2 -2 -2 -2 -2 -2 -1 -1 -1 -1 -1 -1 -1 -1 -1 -1 -2 -2 -2 -2 -2 -2 -2 -2 -2 -2 -2 -2 -1 -1 -1 -0 0 1 1 1 2 2 2 2 3 4 4 5
-5 -5 -5 -4 -4 -4 -4 -4 -4 -4 -4 -4 -4 -4 -5 -5 -5 -5 -5 -5 -5 -5 -5 -5 -5 -5 -5 -4 -4 -4 -4 -3 -3 -3 -3 -3 -4 -3 -3 -3 -3 -3 -2 -2 -2 -2 -2 -2 -1 -1 -1 -1 -1 -1 -1 -1 -1 -2 -2 -2 -2 -2 -2 -2 -2 -2 -2 -2 -2 -2 -2 -1 -1 -0 0 1 1 1 1 2 2 3 3 4 5 5
-5 -5 -4 -4 -4 -4 -4 -4 -4 -4 -4 -5 -5 -5 -5 -5 -5 -5 -5 -5 -5 -5 -5 -5 -5 -5 -5 -5 -4 -4 -4 -4 -4 -4 -4 -4 -4 -4 -3 -3 -3 -3 -3 -2 -2 -2 -2 -2 -2 -1 -1 -1 -1 -1 -1 -1 -2 -2 -2 -2 -2 -2 -2 -3 -3 -3 -3 -2 -2 -2 -1 -1 -0 0 0 0 1 1 1 1 2 3 4 5 6 6
-5 -5 -4 -4 -4 -4 -4 -4 -5 -5 -5 -5 -5 -5 -5 -5 -5 -5 -5 -5 -5 -5 -5 -5 -5 -5 -5 -5 -5 -4 -4 -4 -4 -4 -4 -4 -4 -4 -4 -3 -3 -3 -3 -2 -2 -2 -2 -2 -2 -2 -2 -2 -2 -2 -2 -2 -2 -2 -2 -2 -3 -3 -3 -3 -3 -3 -3 -2 -2 -1 -1 -0 -0 0 0 0 0 0 1 1 2 3 5 6 6 6
-5 -5 -4 -4 -4 -4 -5 -5 -5 -5 -5 -5 -5 -5 -5 -5 -5 -5 -5 -5 -5 -5 -5 -5 -5 -5 -5 -5 -5 -4 -4 -4 -4 -4 -4 -4 -4 -4 -4 -3 -3 -3 -3 -3 -3 -3 -3 -2 -2 -2 -2 -2 -2 -2 -2 -2 -2 -2 -3 -3 -3 -3 -3 -3 -3 -3 -2 -2 -1 -1 -1 -1 -0 -0 -0 -0 -0 0 0 1 2 3 4 6 7 7
-5 -5 -5 -4 -4 -5 -5 -5 -5 -5 -5 -5 -5 -5 -5 -5 -5 -5 -5 -5 -5 -5 -5 -5 -5 -5 -5 -5 -4 -4 -4 -4 -4 -4 -4 -4 -4 -4 -4 -3 -3 -3 -3 -3 -3 -3 -3 -3 -3 -3 -3 -3 -3 -2 -3 -3 -3 -3 -3 -3 -3 -3 -3 -3 -3 -2 -2 -2 -1 -1 -1 -1 -1 -1 -0 -0 -0 -0 0 0 1 2 3 4 6 6
-5 -5 -5 -5 -5 -5 -5 -5 -5 -5 -5 -5 -5 -5 -5 -5 -5 -5 -5 -5 -5 -5 -5 -5 -5 -5 -4 -4 -4 -4 -4 -4 -4 -4 -4 -4 -4 -4 -3 -3 -3 -3 -3 -3 -3 -3 -3 -3 -3 -3 -3 -3 -3 -3 -3 -3 -3 -3 -3 -3 -3 -3 -3 -3 -3 -2 -2 -2 -1 -1 -1 -1 -1 -1 -1 -0 -0 -0 0 0 1 1 2 2 3 4
-5 -5 -5 -5 -5 -5 -5 -5 -5 -5 -5 -5 -6 -5 -5 -5 -5 -5 -5 -5 -5 -5 -5 -5 -4 -4 -4 -4 -4 -4 -4 -4 -4 -4 -4 -4 -4 -4 -4 -4 -4 -4 -3 -3 -3 -4 -4 -4 -4 -4 -3 -3 -3 -3 -3 -3 -3 -3 -3 -3 -3 -3 -3 -3 -2 -2 -2 -2 -2 -1 -1 -1 -1 -1 -1 -1 -0 -0 0 0 1 1 1 2 2 2
-5 -5 -5 -5 -5 -5 -5 -5 -5 -5 -5 -5 -5 -5 -5 -5 -5 -5 -5 -5 -5 -5 -5 -4 -4 -4 -4 -4 -4 -4 -4 -4 -4 -3 -3 -3 -3 -4 -4 -4 -3 -3 -3 -4 -4 -4 -4 -4 -4 -4 -4 -4 -4 -4 -4 -4 -3 -3 -3 -3 -3 -3 -3 -2 -2 -2 -2 -2 -2 -1 -1 -1 -1 -1 -1 -1 -0 -0 0 1 1 1 1 2 2 2
-5 -5 -5 -5 -5 -5 -5 -5 -5 -5 -5 -5 -5 -5 -5 -5 -5 -5 -5 -5 -5 -5 -4 -4 -4 -4 -4 -4 -4 -4 -3 -3 -3 -3 -3 -3 -3 -4 -4 -4 -4 -4 -5 -5 -5 -5 -4 -4 -4 -4 -4 -4 -4 -4 -4 -4 -4 -3 -3 -3 -3 -3 -2 -2 -2 -2 -2 -2 -2 -1 -1 -1 -1 -1 -1 -0 -0 0 0 1 1 1 1 1 2 2
-5 -5 -5 -5 -5 -5 -5 -5 -5 -5 -5 -5 -5 -5 -5 -5 -5 -5 -5 -5 -5 -5 -4 -4 -4 -4 -4 -4 -4 -3 -3 -3 -3 -3 -3 -3 -3 -4 -4 -4 -4 -5 -5 -5 -5 -5 -5 -4 -4 -4 -4 -4 -4 -4 -4 -4 -4 -3 -3 -3 -3 -3 -2 -2 -2 -3 -2 -2 -2 -1 -1 -1 -1 -1 -0 -0 -0 0 0 1 1 1 1 2 2 2
-6 -5 -5 -5 -5 -5 -5 -6 -6 -6 -6 -5 -5 -5 -5 -5 -5 -5 -5 -5 -5 -5 -5 -5 -5 -4 -4 -4 -3 -3 -3 -3 -3 -3 -3 -3 -4 -4 -4 -5 -5 -5 -6 -6 -6 -5 -5 -5 -5 -5 -5 -4 -4 -4 -4 -4 -4 -3 -3 -3 -3 -3 -3 -3 -3 -3 -2 -2 -2 -1 -1 -1 -1 -1 -0 -0 -0 0 0 0 1 1 1 1 2 2
-6 -6 -6 -6 -6 -6 -6 -6 -6 -6 -6 -5 -5 -5 -5 -5 -5 -5 -5 -5 -5 -5 -5 -5 -5 -4 -4 -3 -3 -3 -3 -3 -3 -3 -3 -3 -4 -4 -4 -5 -5 -6 -6 -6 -6 -6 -6 -5 -5 -5 -5 -4 -4 -4 -4 -4 -4 -3 -3 -3 -3 -3 -3 -3 -3 -3 -2 -2 -1 -1 -1 -1 -1 -0 -0 -0 -0 -0 0 0 1 1 1 1 2 2
-6 -6 -6 -6 -6 -6 -6 -6 -6 -6 -5 -5 -5 -5 -5 -5 -5 -5 -5 -5 -5 -5 -5 -5 -4 -4 -4 -4 -3 -4 -3 -3 -3 -3 -3 -4 -4 -4 -5 -5 -6 -6 -6 -6 -6 -6 -6 -6 -5 -5 -5 -4 -4 -4 -4 -4 -4 -4 -4 -4 -4 -4 -4 -3 -3 -2 -2 -2 -1 -1 -1 -1 -1 -0 -0 0 0 0 0 0 1 1 1 1 2 2
-6 -6 -6 -6 -6 -6 -6 -6 -6 -6 -6 -5 -5 -5 -5 -5 -5 -5 -5 -5 -5 -5 -5 -4 -4 -4 -4 -4 -4 -4 -4 -3 -3 -3 -4 -4 -4 -5 -5 -6 -6 -6 -6 -6 -6 -6 -6 -5 -5 -5 -5 -4 -4 -4 -4 -5 -5 -5 -4 -4 -4 -4 -4 -3 -3 -2 -2 -2 -1 -1 -1 -1 -1 -0 0 0 0 0 0 0 1 1 1 2 2 2
-6 -6 -6 -6 -6 -6 -6 -6 -6 -6 -6 -6 -5 -5 -5 -5 -5 -5 -5 -5 -5 -5 -5 -4 -4 -4 -4 -4 -4 -4 -4 -4 -4 -4 -4 -4 -5 -5 -6 -6 -6 -6 -6 -6 -6 -5 -5 -5 -5 -4 -4 -4 -4 -5 -5 -5 -5 -5 -5 -5 -4 -4 -4 -4 -3 -2 -2 -2 -2 -1 -1 -1 -1 -0 0 0 0 0 0 0 0 1 1 2 2 2
-6 -6 -6 -6 -6 -6 -6 -6 -6 -6 -6 -6 -5 -5 -5 -5 -5 -5 -5 -5 -5 -5 -4 -4 -4 -4 -4 -4 -4 -4 -4 -4 -4 -4 -4 -4 -5 -5 -6 -6 -6 -7 -7 -6 -6 -5 -4 -4 -4 -4 -4 -5 -5 -5 -5 -5 -5 -5 -5 -5 -4 -4 -4 -3 -3 -2 -2 -2 -2 -2 -1 -1 -1 -0 0 1 0 0 0 0 0 0 1 1 2 2
-6 -6 -6 -6 -6 -6 -6 -6 -6 -6 -6 -6 -5 -5 -5 -5 -5 -5 -5 -5 -5 -4 -4 -4 -4 -4 -4 -4 -4 -4 -4 -4 -4 -4 -4 -5 -5 -6 -6 -6 -7 -7 -7 -6 -6 -5 -5 -5 -4 -4 -5 -5 -5 -5 -5 -5 -5 -5 -5 -4 -4 -4 -4 -3 -3 -3 -2 -2 -2 -2 -1 -1 -1 -1 -0 0 1 1 0 0 0 -0 0 1 1 2
Height
686 683 681 680 678 675 672 672 671 669 665 664 663 661 659 657 656 654 653 651 650 648 647 646 644 642 640 639 638 636 635 633 632 631 629 628 626 624 623 621 619 618 616 614 613 611 609 607 605 604 602 601 600 598 597 596 595 594 593 591 590 588 587 586 584 583 582 581 580 579 578 577 576 576 575 574 574 573 573 573 572 571 571 570 569 568
685 682 680 679 678 675 671 670 670 669 665 662 660 659 657 655 653 651 650 649 647 646 644 643 641 639 638 636 635 634 633 632 630 629 627 625 623 622 620 618 617 615 613 612 610 608 607 605 603 602 600 599 597 596 595 594 593 592 590 589 588 586 585 583 582 580 578 578 577 577 576 575 574 573 573 572 571 571 570 570 569 568 568 567 566 565
684 681 679 678 677 675 671 669 668 667 665 662 659 657 655 653 651 649 648 646 644 643 642 640 638 637 635 634 633 632 631 629 628 626 624 623 621 619 617 616 614 613 611 609 608 606 604 603 601 599 598 597 595 594 593 591 590 589 588 586 585 583 582 581 579 578 576 575 575 574 573 572 572 571 570 569 568 568 568 567 567 566 565 564 563 563
684 680 678 676 675 673 671 668 666 664 663 660 657 655 653 651 649 647 645 643 642 640 639 638 636 635 633 632 631 629 628 627 625 623 622 620 618 616 615 613 612 610 609 607 606 604 602 600 599 597 596 594 593 592 590 589 588 586 585 583 582 581 579 578 576 575 573 573 572 571 570 569 568 568 567 566 566 565 565 564 564 563 562 561 560 560
682 679 676 675 673 670 668 667 664 662 659 657 655 653 651 649 647 644 643 641 640 638 636 635 634 633 631 629 628 627 625 624 622 620 618 617 615 614 613 611 610 608 607 605 603 601 600 598 597 595 593 592 591 589 588 587 586 584 583 581 580 578 577 575 573 572 571 569 568 567 567 566 565 564 564 563 563 562 561 561 560 560 559 558 558 557
679 678 675 673 672 669 666 664 662 660 658 655 653 650 648 647 645 643 641 640 638 637 635 633 632 630 629 627 625 623 622 621 619 618 616 614 613 612 611 609 608 606 604 603 601 599 597 596 594 592 591 589 588 586 585 584 583 581 580 578 577 576 574 572 571 570 569 568 566 564 563 563 562 561 561 560 559 558 558 557 557 556 556 555 555 554
676 675 674 672 670 668 665 663 660 658 656 653 650 648 647 645 644 642 640 639 637 635 633 631 629 628 626 624 623 621 620 618 617 615 613 612 611 610 608 607 606 604 602 600 598 596 594 593 591 589 588 586 585 583 583 581 580 578 577 575 574 573 571 569 568 568 567 565 563 562 560 559 558 558 557 556 555 555 554 554 554 553 553 552 552 551
674 673 673 671 668 665 662 660 658 657 655 652 650 648 646 644 643 641 639 637 635 633 631 628 626 624 623 622 620 619 617 616 614 613 611 610 608 608 606 605 603 602 600 598 596 594 592 590 588 587 585 583 582 581 580 578 577 576 574 573 571 570 568 567 566 565 564 563 561 559 557 556 555 554 554 553 552 552 552 551 551 550 550 549 548 548
674 672 669 669 667 663 659 656 655 655 654 652 650 648 645 643 641 638 637 634 633 631 629 626 623 621 620 619 618 617 615 613 612 610 609 608 606 605 604 603 601 599 597 595 593 591 589 587 585 583 582 581 579 578 577 576 575 573 572 570 569 568 566 565 564 563 562 560 558 556 554 553 552 551 550 550 549 549 548 548 548 547 547 546 546 545
673 671 668 665 663 661 658 654 653 653 653 651 649 648 645 642 639 636 633 630 629 628 627 625 622 619 617 616 615 614 612 611 610 608 608 606 605 603 602 600 598 596 594 593 591 589 587 585 583 581 579 578 577 576 575 574 573 571 570 568 567 565 564 563 562 560 559 557 555 553 552 550 549 548 547 547 546 546 545 545 544 544 543 543 543 542
670 668 665 662 660 658 657 655 653 652 651 649 647 645 644 642 639 635 631 627 625 625 624 622 620 618 615 613 612 611 610 608 607 606 605 604 603 601 600 598 596 594 592 590 588 586 584 583 581 579 578 576 575 574 573 573 571 569 568 566 564 563 562 561 559 558 557 555 553 551 549 548 546 545 544 543 543 543 543 542 542 541 540 540 539 539
668 665 663 660 659 657 656 655 653 651 649 648 645 642 640 639 638 635 631 627 624 622 621 619 617 616 614 612 610 609 608 607 606 604 603 601 600 599 597 595 593 591 589 587 585 583 581 580 578 577 576 574 573 573 572 571 569 567 565 564 562 561 560 558 557 556 554 553 551 549 547 546 544 543 542 542 541 541 540 539 539 538 537 537 536 535
666 663 662 660 658 658 656 654 652 649 648 647 645 642 639 637 636 635 632 628 624 621 619 616 614 613 612 611 610 608 607 606 604 603 601 599 598 596 595 593 591 589 587 584 582 580 579 578 576 575 573 573 572 571 570 569 567 565 563 562 561 559 558 557 555 553 552 550 548 547 545 544 543 542 541 541 540 539 538 537 537 535 534 533 533 532
664 662 661 660 658 657 655 653 651 649 647 646 645 643 640 637 635 633 630 626 622 620 618 615 612 610 610 609 609 608 607 605 603 600 598 596 595 594 593 591 588 586 584 583 580 578 577 575 574 573 571 570 569 568 568 567 565 563 562 560 559 558 556 555 553 551 549 548 546 545 543 542 541 540 540 539 538 537 536 535 534 533 532 532 531 529
663 662 660 658 656 655 653 653 651 649 647 646 644 642 639 637 634 631 628 623 620 618 616 613 611 610 609 608 608 607 606 603 601 598 596 593 592 592 592 589 587 584 582 580 578 576 574 573 572 570 569 568 567 566 565 564 563 561 560 558 557 556 554 553 551 549 548 546 545 543 542 541 540 539 538 537 536 535 534 533 532 531 530 530 529 528
663 661 658 656 654 653 653 652 651 648 646 645 643 641 638 635 632 629 626 622 619 616 614 612 610 607 605 605 606 606 605 603 600 597 594 591 589 589 589 588 584 581 579 578 575 573 572 571 569 568 567 566 565 564 563 562 561 559 558 556 555 553 552 550 548 547 546 545 543 542 541 539 538 537 536 534 533 533 532 531 530 529 528 528 527 526
663 660 658 656 654 652 651 651 650 648 646 643 641 639 637 633 630 627 624 621 618 616 614 613 610 606 602 600 601 603 604 602 599 596 593 589 586 585 587 586 583 579 576 574 573 571 569 568 567 566 564 563 563 562 561 559 558 557 555 554 552 551 549 548 547 545 544 543 541 540 539 538 536 535 534 533 531 530 529 529 528 528 527 526 525 525
663 661 659 656 654 652 651 650 648 647 645 642 639 637 634 631 628 625 622 620 619 617 614 612 609 607 603 599 598 599 603 602 599 595 592 588 583 582 583 583 580 577 573 571 569 568 567 566 564 563 563 562 561 560 559 558 556 555 553 552 550 548 547 546 544 543 542 541 539 538 536 535 534 533 531 530 529 528 528 527 527 526 525 525 524 524
661 660 658 656 653 651 650 649 647 645 643 641 638 635 632 629 627 625 623 621 619 617 614 611 608 606 603 600 598 598 601 601 599 595 591 586 581 579 579 579 577 573 570 568 566 565 564 563 563 562 561 560 559 558 557 555 554 553 551 550 548 547 545 543 542 541 540 538 537 536 534 533 531 530 529 528 527 526 526 525 525 524 524 523 523 523
659 658 657 655 653 650 648 647 646 644 642 640 638 635 631 628 625 624 622 620 618 616 613 611 608 605 603 600 598 597 599 600 598 594 590 584 579 576 577 576 574 570 567 565 564 563 563 562 561 560 559 558 557 556 555 553 552 551 549 548 547 545 543 542 540 539 538 537 535 533 532 530 529 528 526 525 524 524 523 523 523 522 522 522 522 521
658 656 655 654 653 650 647 644 643 642 641 639 637 633 630 627 624 622 620 618 616 614 612 609 607 604 602 600 598 597 598 598 597 593 587 582 577 574 573 573 571 567 564 563 563 562 562 560 559 558 557 556 555 554 553 552 550 549 548 546 544 543 541 539 538 537 536 534 533 531 530 528 527 526 524 523 522 521 521 520 520 520 520 520 520 519
657 654 652 652 651 648 645 642 641 640 639 638 635 632 628 625 623 621 618 617 615 612 610 608 605 603 602 600 597 596 596 596 594 591 586 579 574 570 571 570 568 566 563 562 562 561 560 558 557 556 555 554 553 552 551 550 548 547 546 544 543 541 539 538 536 535 533 532 531 529 528 527 526 524 523 522 520 519 519 518 518 518 518 518 518 518
656 653 650 649 648 646 643 641 639 637 636 635 633 630 627 625 623 620 618 616 614 611 608 606 603 602 600 598 596 594 594 593 591 588 584 578 572 568 568 568 567 565 563 561 560 559 558 556 555 554 553 552 551 550 549 548 547 545 544 542 540 539 537 536 534 533 531 530 529 528 527 525 524 523 522 520 519 518 518 517 516 516 516 516 515 515
653 650 648 646 644 643 641 639 637 636 634 633 631 628 626 624 622 620 618 616 613 610 608 604 602 599 597 596 594 592 591 590 589 587 583 577 571 568 567 567 566 563 561 559 559 558 556 554 553 552 551 550 549 548 547 546 544 543 542 540 538 537 535 534 532 531 529 528 527 526 524 523 522 521 519 518 518 517 516 515 514 514 513 513 513 513
651 648 646 644 643 641 639 638 636 635 633 632 629 627 625 623 621 618 617 614 612 609 606 603 600 597 595 593 591 589 588 588 587 585 581 576 570 567 567 567 565 563 559 557 557 557 555 552 550 549 548 547 546 545 544 543 542 541 539 538 537 535 533 532 531 529 528 526 525 523 522 521 520 518 518 516 515 514 514 513 513 512 511 511 511 510
649 647 645 643 642 640 638 637 635 634 633 631 628 626 624 621 619 617 615 613 611 608 606 602 598 595 593 591 589 587 586 585 584 583 580 575 571 567 566 566 565 562 558 556 555 555 553 550 548 546 546 544 543 543 542 541 540 539 538 536 535 533 532 531 529 528 526 524 523 521 520 519 518 516 515 514 513 512 511 511 510 509 509 508 508 508
648 646 644 642 640 639 637 635 633 632 631 629 628 626 623 621 618 615 613 611 610 608 605 601 597 593 591 589 587 585 584 583 583 581 579 577 573 568 565 565 564 562 558 555 553 552 551 548 545 544 543 542 541 541 540 539 538 537 535 534 533 532 530 529 527 526 524 523 521 519 518 517 515 514 513 512 511 510 509 508 508 507 506 506 505 504
646 644 643 641 639 637 635 633 632 630 629 627 626 625 623 621 618 615 612 610 609 607 604 600 597 593 589 587 585 584 583 582 581 580 578 576 572 568 565 564 563 561 558 554 551 549 548 546 543 542 540 540 539 538 538 537 536 535 533 532 531 529 528 527 525 524 522 520 519 517 516 514 513 511 510 509 508 507 506 505 504 504 503 503 502 501
644 643 641 639 637 635 633 632 630 628 627 626 624 623 622 620 618 614 611 610 608 606 602 599 596 593 589 586 584 582 582 581 580 579 578 575 571 567 565 564 563 560 558 553 548 545 544 543 542 540 539 538 538 537 536 535 534 533 531 530 528 527 526 524 523 522 520 518 517 515 513 512 510 509 508 506 505 504 503 502 502 501 500 500 499 498
642 640 638 636 635 633 631 629 628 627 625 624 622 621 620 618 616 613 611 609 607 604 601 598 595 592 589 586 583 580 579 579 579 578 577 574 570 566 564 563 561 559 558 554 548 542 538 538 539 539 537 536 536 535 534 533 531 530 528 527 526 524 523 522 521 519 518 516 514 513 511 509 508 506 505 503 502 500 499 498 498 498 497 496 496 495
640 638 636 634 633 631 629 628 626 624 623 622 620 619 618 616 614 612 610 608 606 603 600 597 594 592 590 587 583 579 577 576 577 578 576 573 569 565 563 562 560 558 557 555 550 543 536 533 534 536 536 535 534 533 532 531 529 528 526 525 523 522 521 520 519 518 516 514 512 510 508 507 505 503 501 500 498 497 496 495 495 494 494 493 492 492
639 637 635 632 630 628 627 625 624 622 621 619 618 617 615 613 612 610 608 607 605 602 600 597 594 592 590 588 585 581 577 576 576 576 575 572 568 564 563 561 558 556 555 555 553 548 540 533 531 533 534 533 532 530 529 528 527 526 524 523 522 520 519 518 517 515 513 511 509 508 506 504 502 500 498 496 495 493 492 491 491 491 490 489 489 488
638 635 633 631 628 627 625 624 622 621 619 618 616 614 613 612 610 608 607 605 603 601 599 596 593 591 588 586 584 581 578 576 574 574 573 571 567 563 561 559 557 555 553 552 550 548 543 537 533 531 531 531 530 529 527 526 525 524 523 522 520 519 518 516 515 513 511 509 507 504 503 500 498 497 495 493 492 490 489 488 487 487 487 486 485 484
636 633 631 629 627 625 623 622 621 619 618 616 614 613 611 609 608 607 605 603 602 600 598 596 593 590 587 584 581 578 576 574 573 572 571 569 566 562 559 558 556 553 551 548 547 544 541 538 535 532 529 528 527 527 526 525 524 523 522 521 520 518 516 514 513 511 509 507 504 502 499 497 495 493 492 490 489 488 486 484 483 483 482 482 481 481
634 632 629 627 625 623 622 620 619 617 616 614 613 611 609 608 606 604 603 601 599 598 596 594 592 589 586 583 580 577 574 572 571 570 569 568 565 561 558 556 554 552 550 547 544 542 539 537 535 533 530 526 524 524 524 523 523 522 521 520 519 517 515 513 511 509 507 505 502 500 497 495 493 491 490 488 487 485 483 482 480 478 477 477 476 477
633 630 628 626 624 622 620 619 617 616 614 612 611 609 608 606 604 602 601 599 597 595 593 592 590 588 585 583 580 576 573 570 569 568 567 566 563 560 557 554 553 551 549 545 543 541 539 536 534 532 530 527 524 522 522 522 522 521 520 518 517 515 513 512 510 508 506 503 500 498 496 494 492 490 488 487 485 483 481 479 477 475 473 472 472 472
632 629 626 625 623 621 619 618 616 614 612 610 609 607 606 604 602 600 598 596 594 593 591 588 587 584 583 580 578 575 572 569 567 566 564 563 561 559 556 553 551 549 548 544 542 540 538 536 533 530 528 526 524 523 521 521 520 519 518 517 515 514 512 510 508 507 504 502 499 497 495 493 491 489 488 485 483 481 479 477 474 472 470 468 468 468
630 628 625 623 622 620 618 616 614 613 611 609 607 605 603 602 600 598 596 593 592 590 588 586 583 581 579 577 575 573 570 568 565 563 562 560 559 557 554 551 549 547 546 544 542 540 538 535 532 529 527 526 525 524 523 521 520 518 517 515 514 512 510 508 507 505 503 501 498 496 494 492 490 488 487 484 482 480 478 475 473 470 468 466 466 467
629 627 624 623 621 619 617 615 613 611 610 608 606 604 602 600 598 595 593 591 589 587 585 583 581 578 576 574 572 570 568 566 563 561 559 558 556 554 552 549 547 545 544 543 541 539 537 534 532 530 528 527 525 524 523 522 521 519 516 514 512 510 508 507 505 504 502 500 498 495 493 491 489 488 486 483 482 479 477 475 473 470 468 465 465 466
628 625 623 622 620 618 617 614 613 610 608 606 604 602 600 598 595 593 591 589 587 585 583 581 578 576 574 572 569 567 565 563 561 559 557 555 553 552 550 548 546 544 542 541 539 538 536 534 533 532 530 528 527 524 523 522 521 519 517 514 511 508 507 505 504 502 501 499 497 495 493 491 489 487 485 483 481 479 478 476 473 471 469 467 466 467
627 624 623 620 619 617 615 613 611 609 607 605 603 600 598 596 594 591 589 587 585 583 580 578 576 573 571 569 567 565 563 561 559 557 555 553 552 550 549 547 545 543 541 540 538 537 536 535 533 532 530 529 527 525 523 522 521 519 518 516 512 509 506 504 503 501 500 498 496 494 492 490 488 487 485 483 482 480 478 476 474 472 470 469 468 468
626 624 622 620 618 616 613 612 610 608 606 604 602 599 597 595 593 590 588 585 583 581 578 576 574 571 568 566 564 562 560 558 557 555 553 552 550 549 548 547 545 543 542 540 538 537 536 534 533 532 530 529 527 526 523 522 520 519 518 516 513 509 505 503 501 500 499 497 495 493 492 490 488 487 485 483 482 480 478 477 475 473 472 470 469 469
626 623 621 619 617 615 613 610 608 606 604 602 600 598 596 594 592 590 587 585 582 579 577 575 573 570 567 564 561 559 558 557 555 553 552 551 549 548 547 546 545 543 542 540 538 536 534 533 532 531 529 528 528 526 524 522 519 518 517 515 513 510 506 503 501 499 498 497 495 493 492 490 489 487 486 484 483 481 479 477 475 474 473 472 471 470
625 623 620 618 616 613 611 609 607 605 603 601 599 597 594 593 591 589 586 584 581 578 576 573 571 568 566 563 560 558 556 554 553 552 551 550 549 548 547 545 544 543 541 539 538 535 533 532 531 530 529 528 527 526 524 522 519 517 516 514 512 510 508 505 502 500 498 496 495 493 492 491 489 488 486 484 483 481 479 478 476 475 474 473 472 471
624 622 619 617 615 612 610 608 606 604 602 600 598 595 593 591 589 588 585 583 580 577 574 572 570 567 564 562 559 557 555 553 552 550 550 549 548 547 546 544 543 541 539 538 537 535 533 532 530 529 528 528 527 525 523 521 519 517 515 513 512 510 508 506 503 501 499 497 495 494 493 491 489 488 487 485 483 482 480 479 478 476 475 474 473 472
623 620 618 616 613 612 609 607 605 603 601 598 596 594 592 590 588 586 584 581 578 576 573 571 569 567 564 561 559 557 555 552 551 549 549 548 547 546 544 543 542 540 538 537 535 534 533 532 530 529 528 527 526 524 523 522 520 518 515 513 512 510 508 505 503 501 500 498 496 495 493 491 490 489 488 486 484 483 482 480 479 478 477 476 475 473
622 620 617 615 613 610 608 606 604 602 599 597 595 593 591 589 587 584 582 580 578 575 572 570 568 566 563 562 559 557 555 552 550 549 548 547 546 544 543 542 540 538 537 535 533 532 531 530 530 529 528 527 525 524 523 522 520 518 516 514 512 510 508 505 503 502 500 499 497 496 494 492 491 490 488 487 486 485 483 482 481 480 479 478 477 476
621 619 616 614 612 609 607 605 603 601 598 596 593 591 589 588 586 583 581 578 576 574 571 569 567 565 563 561 559 558 555 553 551 549 548 546 545 543 542 541 539 537 535 533 532 531 529 529 528 528 528 527 526 524 523 521 520 518 516 514 513 511 508 506 504 502 501 499 498 497 495 493 492 491 490 488 487 486 485 484 483 482 481 480 479 478
621 618 616 613 611 608 606 604 602 600 597 595 592 590 588 586 584 583 580 578 575 573 570 568 566 564 562 560 558 557 555 553 552 550 548 547 545 544 542 540 538 536 534 532 530 529 528 528 528 528 528 528 526 525 523 521 519 518 516 515 513 511 509 507 505 503 502 500 499 497 496 494 493 493 491 490 489 488 488 487 486 485 484 483 483 482
620 618 615 613 610 608 605 603 601 599 596 594 591 589 586 584 583 581 579 577 574 572 570 568 566 564 562 560 558 557 555 553 552 550 548 547 545 544 543 541 539 537 534 532 530 528 528 528 528 529 528 528 527 525 523 521 519 518 516 515 513 512 510 508 506 505 503 502 500 498 497 496 495 493 492 491 490 490 490 489 489 488 487 487 486 486
618 616 614 612 609 607 605 603 600 598 595 593 591 588 586 583 581 579 577 575 573 570 568 567 565 564 562 560 558 557 555 554 552 550 548 547 546 545 544 542 541 539 537 534 532 530 529 529 529 529 528 528 527 526 524 522 520 518 517 515 513 512 511 509 508 506 505 503 502 500 499 497 496 495 494 493 493 493 493 493 493 492 491 490 490 489
Wind_Speed
32 33 33 33 33 34 34 33 32 33 33 34 34 34 35 34 34 34 33 32 32 31 32 32 33 33 33 33 32 31 32 33 34 36 37 39 40 41 41 41 41 41 41 41 41 42 42 42 41 40 40 38 37 36 36 35 35 35 35 36 36 37 37 37 37 36 36 36 36 36 36 36 36 34 33 32 33 33 33 33 33 34 34 34 34 34
32 32 32 31 31 31 31 31 30 30 32 34 36 36 36 36 35 35 35 34 33 32 31 31 31 32 32 32 31 31 32 34 35 37 38 39 40 40 40 40 40 40 40 41 42 42 42 41 41 40 39 38 38 37 37 37 37 37 37 36 37 37 37 37 37 36 35 35 35 36 36 36 35 34 33 33 33 33 33 34 34 35 35 35 34 33
30 30 29 28 28 28 29 30 31 32 34 36 37 37 37 37 37 37 36 35 33 31 30 30 31 31 32 32 32 32 33 34 36 37 38 39 39 39 39 39 39 40 40 41 42 42 42 41 40 40 39 39 38 38 38 38 38 38 38 38 38 38 38 37 37 36 36 36 36 36 36 35 34 34 33 33 33 33 33 34 35 36 37 37 35 34
26 26 26 27 27 28 30 32 34 35 36 37 37 38 38 37 37 36 35 33 31 30 30 30 31 31 31 32 32 33 33 35 36 37 38 38 38 38 38 38 39 40 41 42 42 42 41 41 40 40 39 39 39 38 38 38 38 38 38 38 39 39 38 37 37 37 37 37 37 37 36 35 34 34 33 33 33 33 34 34 35 36 37 37 36 36
25 25 27 28 30 31 34 35 36 36 36 36 36 37 37 35 34 33 32 31 30 30 30 30 30 31 31 32 32 33 33 35 36 37 38 38 37 36 36 37 38 40 42 42 42 42 41 40 40 40 40 40 39 38 37 36 36 37 37 37 37 37 37 36 36 36 37 37 38 38 37 36 35 34 33 33 33 34 33 33 32 33 34 36 36 36
28 27 28 29 30 32 34 35 35 35 35 34 34 34 33 31 30 29 29 29 29 29 30 30 30 31 31 32 32 33 34 35 37 37 37 36 35 34 35 36 38 41 42 42 42 41 41 41 40 40 40 40 39 38 36 35 35 35 36 36 35 35 35 34 34 35 36 38 39 39 38 37 36 34 33 33 34 33 31 30 29 30 32 33 34 35
27 27 27 28 30 32 33 34 34 34 33 32 31 30 28 26 26 26 27 28 28 29 30 31 31 31 31 32 32 32 34 35 36 36 35 33 32 32 34 36 39 41 41 42 41 41 41 41 41 41 41 40 39 37 36 35 35 35 36 36 36 35 34 34 34 35 37 38 39 38 37 36 34 33 33 33 32 31 29 29 29 29 30 32 33 33
23 25 26 28 31 32 33 33 32 31 30 28 26 24 24 23 24 25 27 28 29 30 31 31 32 32 32 32 32 32 33 34 34 33 31 30 30 31 33 36 38 40 40 40 40 40 40 40 40 40 40 39 37 35 34 34 34 35 36 37 37 36 36 35 35 35 36 36 36 35 34 33 32 31 31 31 30 29 28 29 29 29 30 30 31 32
22 25 28 30 31 31 31 30 28 26 24 23 22 21 21 23 25 28 30 31 31 31 31 32 32 32 32 32 32 33 33 33 31 30 29 29 30 32 34 36 38 38 39 39 39 39 40 40 40 39 37 35 33 32 32 32 34 35 36 37 37 37 36 36 36 35 34 34 33 32 31 30 29 29 28 28 28 28 28 28 28 28 28 29 30 31
26 28 30 32 32 30 27 25 23 21 20 21 21 21 22 23 25 28 30 31 32 32 32 32 32 32 33 33 33 33 32 30 29 28 28 29 31 33 34 36 36 37 37 38 38 38 38 38 38 36 34 31 30 30 31 32 34 36 36 37 37 36 36 36 36 36 35 34 32 30 29 27 26 26 26 26 26 27 28 28 27 27 28 29 30 30
30 32 32 31 30 26 21 18 18 19 21 22 25 26 26 25 25 25 25 28 31 33 33 32 32 32 32 33 33 32 29 27 26 26 27 29 31 32 33 34 35 35 36 37 37 37 36 36 35 33 31 30 30 31 31 33 34 35 36 36 36 35 35 35 35 35 35 33 31 28 26 25 25 25 25 25 25 26 27 27 27 28 28 29 29 30
30 31 29 25 20 17 16 18 21 24 26 26 26 27 29 30 30 28 26 26 29 32 32 33 32 32 32 32 31 28 25 23 24 26 27 29 30 30 31 32 33 34 35 35 35 34 33 32 32 31 31 31 31 31 31 31 33 34 34 35 35 34 34 34 34 33 32 31 28 26 25 25 25 25 25 25 25 26 26 26 27 28 28 29 29 29
29 25 20 15 14 15 18 22 26 28 28 27 24 21 24 29 32 31 29 29 30 31 32 32 32 32 31 28 25 22 21 22 24 26 28 29 29 30 30 31 32 33 33 33 32 31 31 31 31 31 31 31 31 30 30 30 31 33 34 34 34 33 33 33 32 31 30 28 27 26 25 26 26 25 25 25 25 25 24 25 26 28 28 28 27 27
21 16 13 13 16 20 24 25 25 25 26 27 26 26 28 31 31 31 30 30 31 31 30 29 27 25 23 20 19 19 21 23 25 27 28 29 30 30 30 30 32 33 32 31 31 31 31 31 31 31 31 31 30 29 29 29 30 31 33 33 32 32 32 32 31 30 29 28 27 27 27 27 27 27 26 25 25 24 23 24 25 25 24 24 23 23
13 11 9 10 15 21 25 26 26 26 27 29 30 30 31 31 31 30 28 27 28 28 25 22 20 19 19 19 20 22 23 25 26 27 28 30 32 32 31 30 31 32 32 31 31 32 32 31 31 31 31 30 29 28 28 28 30 31 33 33 33 32 32 31 30 29 29 29 29 29 29 29 29 29 29 28 26 24 22 21 21 21 21 22 22 21
14 14 10 11 15 21 27 28 27 28 29 30 31 30 29 29 30 29 27 24 22 19 15 13 13 15 20 26 27 26 25 25 26 27 29 32 34 34 31 30 30 31 31 31 31 31 32 31 31 30 29 28 27 27 27 29 31 33 34 34 34 33 32 31 30 29 30 31 31 31 31 30 30 31 32 31 28 25 22 21 21 22 22 23 23 22
19 19 17 15 17 22 29 30 29 29 30 30 29 29 29 29 28 26 21 18 15 14 13 10 8 9 13 24 29 28 25 24 25 27 29 32 35 35 32 29 29 30 31 31 31 31 31 30 29 26 25 24 25 26 28 31 32 34 34 34 34 34 33 31 31 31 32 33 33 33 32 31 31 31 32 32 31 28 24 23 22 22 23 23 23 22
23 23 22 19 20 24 29 29 29 29 29 28 29 30 31 28 24 19 15 15 15 15 14 11 8 8 8 9 20 29 27 25 25 27 29 32 34 35 32 29 29 30 31 32 32 31 30 27 25 23 23 23 25 28 30 32 33 33 33 33 34 34 34 35 35 35 34 34 34 33 32 32 31 30 31 31 31 29 27 25 24 23 22 22 22 22
25 26 25 23 24 26 28 28 27 27 27 27 28 29 28 23 19 17 19 21 22 20 17 12 10 10 10 13 23 31 29 28 27 28 28 29 32 33 31 29 28 30 31 31 31 28 25 23 21 21 22 25 27 29 31 32 32 32 32 33 34 35 36 36 36 35 34 33 33 32 31 31 30 29 30 30 30 29 27 26 25 23 23 22 22 21
28 28 27 27 27 27 27 28 28 27 27 28 30 29 24 21 19 20 22 23 24 25 24 20 16 16 20 24 29 32 31 29 28 27 26 27 30 32 30 28 27 28 28 27 24 22 20 20 21 23 24 26 28 29 30 30 30 31 32 33 34 35 36 36 35 34 33 33 32 31 30 29 28 27 27 28 28 28 27 25 25 24 23 22 22 21
29 29 30 30 29 27 27 28 29 29 29 31 30 28 23 21 20 21 23 24 25 26 26 22 21 23 26 27 29 31 31 29 27 24 23 23 26 28 28 27 25 23 21 19 17 17 19 21 24 25 26 27 28 28 29 29 30 31 32 34 35 35 35 35 34 34 32 31 30 29 28 28 28 28 27 27 25 24 24 23 23 23 23 22 21 21
30 30 32 32 31 29 29 30 30 30 30 31 29 25 22 20 20 21 24 25 25 25 24 23 25 27 28 28 29 31 30 28 26 24 21 15 18 25 27 24 20 17 16 17 19 21 23 24 24 25 26 27 28 28 27 28 28 30 32 34 35 35 34 34 33 32 31 29 28 28 29 29 30 30 29 28 26 24 23 22 22 23 23 22 22 22
31 32 33 32 31 30 30 29 28 27 28 29 28 26 23 22 23 24 26 26 26 26 27 28 29 29 28 28 29 29 28 26 24 22 18 11 14 21 24 19 15 15 18 21 23 25 25 26 26 27 27 27 27 27 26 27 28 30 32 33 33 33 32 32 32 31 30 30 30 30 31 31 31 30 29 28 27 25 24 23 23 23 24 24 24 23
32 31 31 31 30 28 27 26 26 27 28 28 28 28 29 28 28 29 29 29 29 29 28 29 28 27 27 27 27 26 25 23 22 21 17 11 14 20 21 17 17 19 22 25 26 26 27 28 28 28 27 27 26 25 25 26 28 29 31 31 31 31 30 30 30 31 32 32 33 33 32 32 31 30 29 27 26 25 25 24 24 25 25 25 25 25
33 32 31 29 28 28 28 29 31 32 32 32 31 32 32 32 32 32 31 30 29 28 27 25 21 18 22 24 24 23 23 23 23 23 20 12 12 17 19 20 20 22 25 27 28 28 28 28 29 28 26 25 24 24 25 25 27 28 29 29 29 29 28 29 30 31 33 33 33 33 32 31 30 29 28 27 26 25 25 25 26 26 27 27 27 27
33 32 31 30 30 31 32 33 34 35 35 33 32 32 32 32 32 31 29 27 25 24 22 17 12 11 16 19 19 20 21 21 21 20 18 12 11 15 21 23 24 24 26 28 29 28 28 28 28 27 25 23 22 22 23 24 25 26 26 27 27 27 28 29 31 32 32 32 32 32 31 30 29 29 28 27 26 26 26 26 27 28 28 29 29 28
29 28 28 30 31 32 33 34 34 34 33 32 32 32 32 31 29 26 23 23 23 22 18 12 10 11 12 13 15 17 20 19 17 16 17 16 14 15 21 25 25 24 25 27 28 28 28 28 27 25 23 21 21 21 21 22 23 24 24 25 26 27 29 30 31 31 31 31 31 31 31 30 30 29 28 27 27 27 28 28 29 29 29 29 29 28
24 26 28 30 31 32 32 32 31 31 31 31 31 31 31 28 25 21 19 22 24 21 16 12 11 11 9 8 12 18 21 19 18 18 20 20 14 12 21 24 25 24 24 26 28 30 28 26 25 23 21 20 19 19 20 21 21 22 24 25 26 28 28 29 29 29 29 30 30 31 31 30 30 29 28 28 29 29 30 30 30 30 29 29 28 27
26 28 30 30 30 30 30 29 29 29 29 30 30 30 28 26 23 21 22 24 24 20 15 12 11 10 10 10 15 20 20 19 19 20 21 20 14 14 23 24 24 23 23 22 23 25 25 23 21 19 18 18 18 19 20 22 23 24 25 25 26 26 26 27 27 27 28 29 30 31 31 30 29 29 29 29 30 30 30 30 30 29 29 28 27 26
30 30 29 29 28 28 28 28 28 28 28 29 29 28 27 26 24 24 25 25 23 20 16 13 12 11 10 11 13 13 12 16 19 20 22 16 12 15 23 22 22 22 21 15 12 12 15 18 18 18 17 18 20 21 23 24 24 24 24 24 24 24 24 24 25 26 28 29 30 30 30 30 29 30 30 31 31 31 31 30 29 28 27 26 25 24
30 29 28 28 28 27 27 27 27 27 27 27 27 26 26 25 24 24 25 24 23 21 19 17 16 15 13 10 8 6 5 15 21 23 23 18 15 16 21 20 21 22 21 15 8 5 8 10 15 18 17 19 22 24 24 24 23 23 22 22 22 22 22 23 24 26 28 29 29 29 29 30 30 31 31 31 31 30 29 28 27 26 25 24 23 23
28 28 28 28 27 27 26 25 25 25 25 25 25 25 25 24 24 23 23 23 22 21 21 20 20 20 18 13 9 8 8 19 25 26 25 21 20 21 22 20 20 22 23 21 14 7 7 5 11 18 20 22 23 24 24 23 22 21 21 20 21 21 22 23 24 26 27 28 28 29 29 30 30 31 31 30 29 28 26 25 24 23 23 22 22 22
28 28 28 28 27 26 25 24 24 24 25 25 25 25 24 23 23 23 22 22 22 22 22 22 21 20 20 17 15 15 18 23 26 27 26 23 20 19 21 21 21 22 23 23 20 15 11 7 10 17 22 24 24 23 22 21 20 19 19 19 19 21 23 24 24 25 26 26 27 28 29 29 29 29 28 27 25 24 24 23 23 22 22 22 22 22
28 28 28 28 26 25 24 23 24 24 25 25 24 24 24 23 23 23 22 23 23 24 24 23 22 21 20 17 15 17 21 25 27 27 27 24 21 20 22 21 20 20 19 17 17 17 13 11 11 11 15 22 24 22 20 19 18 17 17 18 20 22 24 25 24 25 25 26 27 28 28 29 28 27 25 23 22 22 22 22 22 22 22 23 22 22
28 28 27 26 24 23 23 23 24 24 25 25 24 24 24 24 24 24 24 25 25 25 25 25 25 25 23 19 15 15 21 26 29 29 27 26 23 21 22 21 21 20 16 13 11 9 7 10 12 12 9 13 18 19 17 15 15 16 18 19 21 22 24 24 24 25 26 27 27 27 27 27 27 25 23 22 21 21 21 21 21 21 20 21 23 24
27 26 25 24 23 22 23 24 24 25 25 25 25 24 25 25 25 26 26 27 27 27 27 27 27 27 27 26 23 21 25 29 31 31 29 28 26 23 21 22 24 22 17 13 9 7 6 7 12 14 13 9 9 12 14 15 17 18 20 21 22 23 23 24 25 25 26 26 26 26 26 25 24 23 21 20 20 20 19 19 18 16 15 18 22 25
25 24 23 23 22 22 23 24 25 25 25 25 25 25 25 26 26 27 28 28 29 29 29 29 28 28 28 28 28 29 30 31 32 33 33 32 30 26 22 24 26 24 18 14 12 10 9 9 10 11 10 7 5 6 11 17 20 21 22 22 22 22 23 24 25 26 25 25 24 24 23 23 21 20 19 18 18 18 17 16 14 12 9 12 18 24
23 23 23 23 23 23 24 24 25 25 26 26 26 27 27 28 28 29 29 29 29 29 29 29 29 29 30 30 31 33 34 34 35 37 37 35 33 30 25 24 23 22 21 20 19 15 10 9 9 8 6 5 7 11 15 19 20 21 22 22 22 22 22 24 24 24 23 23 23 22 22 20 19 18 17 17 17 17 16 16 14 12 7 4 12 20
22 22 22 23 23 24 24 25 25 26 26 27 27 27 28 28 28 28 28 27 27 27 28 28 28 28 30 31 32 32 33 34 35 36 37 35 33 30 27 23 22 23 24 23 22 19 13 8 5 5 6 6 8 13 18 18 18 19 21 23 23 22 21 22 22 22 21 21 21 20 20 18 17 16 16 16 16 16 16 16 16 14 11 6 3 13
22 22 23 24 24 25 25 26 26 27 27 28 28 28 27 27 26 26 26 26 26 26 27 27 27 27 28 28 28 30 31 32 33 33 33 33 31 29 26 24 23 23 23 21 19 15 12 9 8 8 8 7 7 9 13 15 17 19 20 17 16 19 21 21 21 21 20 20 20 19 18 17 16 15 15 15 15 15 15 15 15 15 14 12 7 5
22 23 24 25 26 26 26 27 27 27 27 27 26 26 26 25 25 25 25 25 26 25 25 25 26 26 26 26 27 28 29 30 30 29 29 30 29 28 26 25 23 22 19 16 15 14 14 14 13 13 13 11 10 10 12 15 18 20 19 14 14 19 23 22 21 19 19 20 20 19 16 16 15 15 15 14 14 14 14 14 15 15 15 13 11 9
23 23 24 26 26 27 27 27 27 27 27 26 25 25 25 24 24 24 25 25 25 25 25 25 25 25 25 25 26 26 26 25 26 26 27 27 27 25 23 20 19 17 17 17 17 18 18 16 15 14 13 12 10 8 9 15 18 19 18 17 18 21 21 20 19 18 19 20 19 18 15 15 15 14 14 13 13 14 14 15 15 15 15 14 13 11
24 24 25 26 27 27 27 27 26 26 25 24 24 24 25 24 24 24 24 24 25 25 25 25 25 24 22 23 23 24 23 23 24 24 24 23 21 18 17 18 19 20 20 19 18 18 18 16 15 14 13 13 11 9 8 12 16 18 18 19 18 14 7 12 17 21 21 20 18 17 16 15 14 13 12 12 13 15 16 17 17 17 17 16 15 14
24 25 26 26 27 27 27 26 25 25 24 24 24 24 25 25 25 24 24 24 24 25 25 25 24 22 20 18 19 21 22 23 23 22 20 17 14 14 16 19 21 21 20 18 16 15 15 15 14 14 14 13 13 11 10 11 14 16 17 18 16 11 7 10 16 20 19 18 17 16 16 14 13 11 11 13 15 17 19 20 20 20 19 19 18 17
25 25 26 26 26 26 25 25 25 25 24 24 24 24 25 25 25 24 23 24 24 25 25 24 22 18 14 14 17 20 22 22 21 19 16 14 14 16 19 20 20 20 19 18 16 15 13 12 13 14 14 14 13 12 11 11 12 14 15 15 14 13 14 16 17 17 15 15 16 16 15 13 12 10 10 13 16 19 20 21 21 21 21 21 20 20
25 25 26 26 26 25 25 25 25 25 24 24 24 24 25 25 25 24 24 24 24 24 24 23 19 13 9 11 15 18 19 19 18 16 15 16 17 19 20 20 20 19 19 18 17 16 15 14 13 13 13 13 12 11 11 11 11 12 13 14 14 14 15 16 16 16 15 14 15 15 14 13 11 10 9 12 15 18 20 21 21 21 21 21 22 22
25 25 25 25 25 25 25 25 25 24 24 24 24 25 25 25 25 24 24 24 23 22 22 21 17 13 11 13 14 15 14 14 15 16 17 18 18 19 20 20 21 20 19 18 17 16 15 15 15 14 12 9 6 6 9 11 11 11 11 12 13 13 12 13 15 15 15 15 15 15 14 13 11 10 10 12 14 16 19 22 23 23 22 22 23 23
25 25 25 25 25 25 25 25 24 24 24 24 25 25 25 25 24 24 24 24 23 22 21 18 15 13 13 15 16 15 14 14 14 16 18 18 18 18 19 21 22 22 20 18 16 14 13 12 11 11 10 7 5 4 8 11 11 11 11 12 12 11 11 12 14 15 15 15 15 15 14 12 10 9 9 11 13 15 17 21 23 24 24 24 24 24
25 25 25 25 24 24 24 24 24 24 24 24 24 25 25 25 24 23 23 23 23 21 18 15 13 12 12 13 15 16 16 16 16 17 17 17 16 16 18 20 21 21 20 18 16 14 10 6 4 4 6 10 9 8 9 11 12 12 12 11 11 11 11 12 13 15 15 15 15 15 15 13 12 10 10 10 10 12 16 19 22 24 25 25 26 26
25 24 25 24 24 24 23 24 24 23 23 23 24 24 25 25 24 23 23 23 22 19 17 15 13 11 10 12 14 15 15 15 15 16 17 15 15 15 17 19 20 19 17 16 15 12 7 2 3 6 9 11 12 12 11 11 12 12 12 11 11 11 11 11 12 14 14 15 15 16 16 16 15 14 13 12 10 11 15 18 20 23 25 25 26 27
25 24 24 24 24 24 24 24 23 23 23 23 23 24 24 24 24 24 23 22 21 18 16 15 14 13 12 12 14 15 15 14 14 15 16 15 14 14 15 17 17 15 12 10 8 7 4 1 2 4 7 11 13 13 13 12 12 11 10 10 12 12 11 11 12 13 14 15 16 17 17 17 17 16 14 13 10 9 10 14 17 20 23 24 26 27
Wind_Direction
297 298 299 299 299 299 298 298 298 298 299 300 300 299 299 297 296 296 295 295 295 294 293 292 292 293 293 293 293 294 295 297 298 299 299 298 297 297 296 296 296 296 297 298 299 299 299 298 297 297 296 297 297 297 298 300 301 302 302 302 301 300 299 296 293 289 287 286 285 285 285 284 282 281 280 280 279 278 278 279 278 277 276 274 271 269
298 298 299 300 300 300 299 300 300 299 300 300 299 298 297 296 295 294 294 294 293 291 290 290 292 293 294 294 295 295 296 297 298 298 297 297 297 296 296 295 296 297 298 299 300 300 299 298 297 297 297 297 297 298 299 299 300 300 300 300 299 299 297 296 294 292 292 289 288 286 285 283 282 281 281 280 279 278 278 278 278 277 277 276 274 271
299 299 300 302 303 302 301 301 300 299 298 298 297 296 295 294 293 293 293 292 291 290 289 291 293 295 295 295 295 295 296 296 296 296 296 296 296 296 295 296 297 298 300 300 300 300 299 297 297 296 297 297 297 297 298 298 298 299 299 299 298 298 296 295 294 294 293 290 287 284 282 281 281 281 280 279 279 279 278 277 276 275 275 275 275 274
297 299 301 304 303 301 299 299 298 297 296 295 294 293 292 291 290 290 290 289 289 289 291 293 295 296 295 294 293 293 293 293 294 295 295 296 296 295 295 296 298 299 300 300 300 299 298 296 296 295 295 295 295 295 295 295 296 297 298 298 298 298 298 296 295 295 294 292 289 285 282 280 279 279 278 278 278 277 275 273 272 271 271 272 272 273
292 294 298 300 301 299 298 297 296 295 294 293 292 291 290 289 288 288 289 289 290 292 295 296 296 295 293 291 290 290 290 292 293 294 295 295 295 295 295 297 298 300 300 300 299 298 297 296 295 295 294 294 293 293 294 294 294 295 296 297 298 298 297 297 296 296 296 294 291 287 284 280 278 276 276 276 275 274 272 270 269 268 269 269 270 270
289 291 295 297 298 298 298 296 294 294 293 292 290 289 289 288 289 290 291 293 295 297 298 298 296 294 291 289 288 288 290 292 293 295 295 294 294 294 296 297 299 300 300 299 298 297 297 296 295 294 293 292 292 293 294 294 295 296 297 298 298 298 297 296 296 296 295 294 291 288 284 279 276 274 273 273 273 273 272 271 271 270 269 269 268 268
289 292 295 298 298 297 295 293 292 291 291 291 292 292 292 292 293 294 295 296 297 298 298 297 296 293 291 289 288 289 291 293 294 294 293 293 293 294 296 298 299 300 299 299 298 297 296 296 295 294 293 292 292 293 294 295 296 298 300 301 300 300 300 299 298 297 295 293 290 287 284 279 275 273 272 273 274 275 275 274 273 272 271 269 268 267
293 296 299 299 299 296 293 290 289 290 291 294 297 299 299 299 298 297 297 297 297 298 298 297 296 294 291 290 290 291 292 293 293 292 291 292 293 295 297 299 299 299 299 298 297 296 296 296 295 294 292 292 292 292 294 296 299 301 302 303 302 301 301 301 300 298 295 293 291 288 284 280 276 275 275 276 277 277 276 275 274 273 271 269 267 266
297 300 300 298 296 294 292 290 290 292 296 299 301 302 302 301 300 300 299 298 298 298 298 298 296 294 292 291 291 291 291 291 290 290 291 293 295 297 298 299 299 299 298 297 296 296 297 296 295 294 293 292 292 293 296 299 302 303 303 302 302 301 301 301 300 300 299 298 296 293 289 284 281 280 280 280 279 277 276 274 273 272 270 269 267 265
299 299 298 295 292 290 289 290 293 297 301 302 301 299 297 297 299 300 300 300 300 300 299 297 295 294 293 292 291 291 290 290 289 289 291 293 296 297 298 299 298 298 297 296 296 296 297 297 296 295 294 295 296 298 300 302 303 302 302 302 302 301 301 301 301 302 303 303 301 299 296 294 291 290 289 287 283 279 276 274 273 272 271 268 265 263
300 297 294 292 290 289 288 291 298 303 306 305 304 301 298 296 297 299 301 301 300 300 298 296 294 293 293 293 292 291 291 290 291 292 293 295 296 297 298 298 298 297 296 295 295 295 295 295 294 294 295 297 299 300 301 302 301 301 301 301 301 301 301 301 302 303 303 303 302 301 301 302 302 302 300 296 290 285 280 278 277 277 275 272 267 262
297 294 291 289 291 296 302 305 308 310 311 310 308 305 302 301 300 300 300 299 299 298 297 295 294 292 292 292 292 292 292 292 293 295 296 297 298 299 300 300 299 298 297 296 294 293 293 292 292 292 294 296 297 298 299 299 300 300 301 301 300 300 301 301 301 301 301 301 301 302 305 308 308 307 304 299 294 290 286 283 282 283 282 279 273 266
293 290 290 295 305 312 314 313 313 313 313 311 309 306 304 303 302 301 298 295 294 294 294 294 294 293 292 292 293 294 294 295 296 297 298 298 299 300 301 302 301 299 297 295 293 292 292 292 292 292 293 294 295 296 296 297 298 299 299 299 299 300 300 300 301 302 303 303 305 307 309 310 310 307 304 299 295 292 289 286 285 284 283 281 279 272
291 293 302 310 313 314 313 313 313 312 311 309 306 304 302 301 300 298 295 292 291 292 292 293 294 295 297 297 297 297 297 298 298 299 298 298 299 300 302 301 299 298 296 294 292 291 292 292 292 292 292 293 293 294 295 295 296 298 299 300 301 301 300 300 302 304 306 308 310 311 312 311 310 307 303 299 295 292 290 289 288 286 284 285 287 284
296 307 310 309 309 310 311 311 311 309 307 306 303 301 299 298 297 294 291 290 290 291 293 294 297 300 302 303 303 302 302 301 301 301 300 299 299 300 301 299 297 295 293 291 290 290 290 290 290 290 290 291 291 292 293 295 298 300 301 302 303 302 301 301 303 305 308 310 311 311 311 310 309 306 303 299 295 292 292 294 296 297 298 302 306 305
307 310 307 305 306 308 308 308 308 306 304 303 301 299 297 295 293 291 289 288 290 294 299 305 307 305 303 302 302 303 304 304 303 302 301 300 299 300 300 298 295 293 291 289 288 288 288 288 287 287 287 288 289 292 295 299 301 302 303 303 303 304 303 304 305 306 307 309 309 308 307 306 304 302 301 299 297 295 295 298 301 303 305 306 309 310
311 310 308 307 306 305 306 306 305 303 301 300 298 296 294 292 290 287 286 288 296 304 308 309 306 304 302 303 303 303 305 306 305 303 302 299 299 299 299 296 293 290 289 287 286 286 286 286 285 285 285 286 290 295 299 302 304 304 303 303 304 305 306 306 306 307 307 307 307 306 304 302 299 297 296 296 297 298 298 299 300 301 301 302 303 304
311 309 307 305 304 304 304 304 302 301 299 298 297 296 294 290 288 289 297 305 309 309 307 303 300 299 301 301 302 303 306 308 307 304 301 298 297 297 297 294 290 288 286 285 284 283 283 282 282 283 286 290 295 299 302 304 304 304 304 304 304 305 305 306 306 306 306 306 305 304 302 300 297 294 292 292 293 295 297 297 297 296 297 297 298 298
306 305 304 303 303 302 302 301 300 298 297 298 298 298 294 291 293 302 309 310 308 305 305 303 300 298 298 297 299 302 306 308 306 303 299 296 295 295 295 293 289 285 282 281 280 280 280 281 283 286 290 295 299 301 303 303 303 303 304 304 304 304 304 305 305 305 305 305 305 303 302 300 297 294 291 289 289 289 290 291 291 292 293 293 293 293
302 301 301 301 301 300 299 297 296 295 296 298 298 297 294 296 301 306 306 306 305 304 304 302 300 298 298 297 298 300 304 306 303 299 294 292 292 292 293 291 286 281 278 276 277 280 284 288 291 293 295 298 300 301 302 302 302 302 303 303 303 303 303 303 303 303 304 304 304 304 305 305 304 300 295 290 286 284 283 285 286 288 290 290 290 290
300 299 298 298 297 296 294 293 292 292 295 297 296 294 294 298 302 305 306 306 305 304 303 301 299 298 298 297 297 299 301 301 296 291 289 288 288 289 291 289 284 279 278 279 285 290 293 293 294 295 297 299 300 300 300 300 300 301 302 302 302 302 301 301 301 302 302 303 305 308 311 314 314 312 307 301 294 289 285 284 285 287 288 288 288 287
297 296 295 294 292 290 289 288 288 290 293 295 293 292 294 299 304 306 307 307 306 304 302 300 298 297 296 295 295 296 296 292 286 282 283 281 283 287 291 290 287 285 288 294 299 300 299 297 297 298 299 299 298 297 296 296 298 299 300 301 301 300 300 300 300 301 303 305 307 310 312 313 312 311 310 308 306 302 297 292 289 288 288 287 287 286
293 292 292 290 288 286 285 285 287 291 294 294 293 293 297 302 306 307 308 307 306 303 301 299 297 296 294 292 292 292 291 286 280 278 281 279 284 289 293 296 298 298 298 300 302 303 302 301 300 299 298 297 295 293 292 293 296 298 299 299 299 299 299 299 301 303 305 307 309 309 309 308 307 306 304 303 302 299 296 294 291 289 288 287 286 285
292 290 289 288 287 286 287 289 294 298 299 298 298 299 302 305 307 307 307 305 304 302 300 298 297 295 294 293 292 291 290 287 283 282 282 280 283 287 293 303 308 305 302 302 304 305 304 301 299 298 296 293 291 289 291 293 295 296 297 297 297 297 298 300 302 304 306 307 307 307 307 306 305 303 301 299 297 294 292 291 289 288 287 286 285 283
293 292 292 292 293 295 297 301 303 304 304 303 303 304 307 308 308 307 305 303 302 300 299 298 296 294 295 295 294 293 292 292 290 287 284 282 283 290 300 309 310 306 303 303 304 304 302 300 298 295 293 289 288 288 290 292 293 294 294 295 296 297 299 301 303 304 304 304 304 304 304 304 303 301 299 297 295 293 291 290 288 287 286 285 283 281
296 297 299 301 303 305 306 306 305 304 304 304 305 306 308 308 308 306 304 302 301 301 299 297 293 291 295 295 294 293 295 296 294 290 289 292 298 303 306 309 308 305 303 303 303 302 300 298 296 293 290 287 286 288 289 290 291 292 292 294 296 298 300 301 302 301 301 301 302 302 302 302 301 300 298 296 294 292 291 289 288 286 284 283 281 279
302 305 307 308 308 308 307 306 304 303 303 303 305 306 307 307 306 303 301 301 302 302 299 293 290 291 293 293 293 296 299 301 300 299 301 303 303 303 304 306 306 304 302 302 301 300 298 296 293 290 287 286 287 288 289 290 290 291 291 293 296 297 298 299 299 300 300 300 301 301 301 300 299 298 296 295 294 293 291 289 287 285 283 281 279 276
311 312 311 309 308 307 306 305 304 303 303 303 303 304 305 305 303 300 298 300 300 299 295 291 290 292 293 292 296 299 301 301 302 304 307 305 301 297 300 303 304 303 302 301 300 299 296 292 289 287 286 287 289 291 292 293 293 292 292 293 294 295 296 297 298 299 299 300 300 300 300 299 298 297 296 295 294 292 290 288 285 283 280 278 275 272
315 313 310 309 307 307 305 304 303 302 302 302 303 303 303 302 299 296 296 297 296 294 291 289 289 291 294 296 299 300 299 299 302 306 308 304 299 296 299 302 302 302 302 301 299 298 294 291 288 286 288 292 296 298 299 298 296 294 293 292 292 293 294 296 297 299 300 300 300 300 299 298 297 297 296 295 294 291 289 286 283 281 278 274 270 266
316 314 312 310 308 307 304 302 301 301 301 302 302 302 301 299 295 293 293 293 292 290 290 292 293 294 296 299 299 298 298 301 305 309 308 304 296 295 299 300 299 299 301 301 299 296 294 293 292 292 295 300 303 303 302 299 297 294 292 291 291 292 293 295 297 299 300 300 300 299 299 298 297 296 295 294 292 290 287 284 281 278 274 270 265 261
316 315 313 310 307 304 302 301 301 301 302 302 302 301 300 297 294 292 291 291 291 290 291 293 295 297 298 300 300 298 300 303 306 307 305 299 293 293 297 297 297 297 298 297 297 297 298 296 297 299 302 305 305 303 301 298 295 293 292 292 292 294 295 298 300 301 301 300 300 299 298 297 296 295 294 293 292 290 287 284 281 277 272 266 260 255
314 312 310 307 304 302 301 302 302 303 303 302 301 300 299 297 295 293 292 292 291 291 292 293 294 295 295 293 291 291 295 299 301 302 300 296 292 291 294 294 295 295 295 292 290 289 295 299 302 303 306 306 304 301 299 296 294 293 293 294 296 297 299 301 302 302 301 301 299 298 297 296 295 295 295 294 293 291 288 285 283 279 274 265 257 250
311 308 306 304 302 301 301 302 303 304 305 303 302 301 300 298 296 295 294 293 292 292 292 292 293 293 292 289 287 286 289 292 295 297 297 295 292 291 293 293 293 293 293 290 285 281 282 287 301 305 306 304 302 299 297 295 294 294 296 299 301 302 303 304 304 302 301 300 299 298 297 297 297 297 297 296 295 293 291 289 287 284 277 268 256 247
308 305 303 302 301 301 302 304 306 306 306 305 304 303 302 300 299 297 295 294 293 291 290 290 290 290 291 290 288 287 288 290 293 295 296 294 292 290 291 291 291 292 292 289 285 283 283 288 297 304 304 302 300 297 296 295 296 300 303 305 305 305 305 304 303 302 300 299 298 297 298 298 299 300 300 300 300 298 297 295 293 289 282 270 255 243
306 305 303 301 301 303 306 308 308 308 308 307 305 304 303 302 301 299 297 295 294 292 290 288 287 287 288 289 289 288 289 291 293 294 294 292 290 289 290 290 290 290 290 288 287 287 288 294 298 299 297 298 298 297 297 300 305 310 310 309 306 304 303 302 301 300 299 298 297 296 297 299 301 303 304 305 305 304 302 301 299 295 283 265 249 237
305 304 302 302 304 306 309 310 311 310 309 308 307 306 304 303 301 300 298 296 294 292 290 288 286 285 284 284 284 285 287 290 291 292 291 289 287 286 287 289 289 289 287 287 289 293 296 294 294 294 292 292 296 301 305 311 315 315 313 310 307 304 301 300 299 298 297 296 295 296 298 301 303 305 308 310 310 309 308 308 309 303 283 255 239 229
304 303 303 304 307 309 311 311 311 311 310 309 308 307 305 303 302 300 298 296 294 293 291 289 287 285 282 281 281 282 283 286 287 288 287 286 285 284 283 285 287 286 285 289 294 296 293 289 288 289 289 290 297 310 315 318 318 316 313 310 308 305 302 300 300 299 297 295 295 297 301 304 306 310 315 318 320 321 322 324 326 322 295 250 230 222
303 303 304 307 310 311 312 311 311 311 310 309 308 307 306 304 301 299 298 296 293 292 292 291 289 287 285 283 281 281 282 283 284 285 286 285 284 282 281 283 284 286 288 290 291 290 285 283 286 290 295 302 309 313 315 317 317 316 313 311 308 305 302 302 302 301 298 297 299 303 307 310 314 319 324 328 332 334 336 340 345 349 341 267 221 215
303 305 307 309 311 312 312 311 310 310 309 308 307 306 305 303 301 299 297 296 294 293 291 291 290 289 288 286 285 284 284 284 284 285 286 285 284 282 282 283 286 288 289 288 285 281 279 282 293 306 314 314 312 312 313 315 315 314 313 313 311 308 305 305 304 302 300 302 305 310 313 318 324 329 332 337 340 341 343 347 354 2 12 27 176 199
305 307 309 310 311 311 311 310 309 309 309 308 307 306 305 305 303 302 300 299 298 297 295 293 292 291 290 289 288 287 287 287 287 287 287 286 285 284 283 284 286 287 287 286 284 286 293 304 311 311 310 308 309 311 312 312 312 312 313 313 312 310 309 307 305 303 304 308 313 316 319 325 332 337 341 345 347 348 350 354 360 9 21 34 55 119
308 309 310 311 311 311 310 309 309 309 308 308 307 307 307 307 306 306 305 305 304 303 301 300 299 297 294 292 291 290 290 289 289 289 288 288 288 288 286 287 287 289 293 298 303 308 312 310 307 304 303 303 303 304 306 307 308 309 309 307 304 304 305 305 304 307 312 318 322 324 327 333 338 343 347 352 356 1 5 9 12 17 27 38 49 61
310 310 310 311 311 311 310 310 309 309 310 309 309 309 308 308 308 308 308 307 307 306 305 305 304 303 300 298 296 295 294 293 292 293 293 294 294 295 296 299 305 312 318 319 316 312 307 303 299 297 298 299 301 302 302 304 305 306 305 303 302 303 304 307 311 317 322 324 327 331 335 338 341 344 351 357 6 16 24 27 27 28 31 37 43 51
310 310 309 310 310 310 310 310 310 311 311 311 310 309 309 309 308 308 307 307 307 307 307 306 305 303 300 299 299 301 301 301 301 301 300 301 304 309 316 322 325 325 322 317 310 305 303 300 296 294 295 298 300 299 297 301 303 304 304 303 302 302 304 313 319 322 325 327 332 337 341 342 343 348 359 10 21 30 35 38 39 39 39 40 42 46
309 309 310 310 311 311 312 312 312 312 312 312 310 310 310 309 309 308 307 306 306 306 307 306 304 301 298 297 301 306 309 310 309 308 307 311 318 327 329 327 324 320 315 308 303 301 301 300 298 298 300 301 300 297 296 298 302 303 305 305 304 303 302 310 316 319 324 329 336 343 346 347 350 358 12 27 35 39 40 41 42 42 43 45 47 48
310 310 311 312 312 313 313 313 313 313 313 312 311 310 310 310 310 309 307 306 306 306 306 305 303 301 299 303 309 313 315 314 313 313 317 323 327 327 327 325 323 319 314 307 301 298 297 297 298 300 302 300 296 292 292 297 301 304 307 310 312 312 310 310 313 316 321 330 339 347 352 355 360 9 22 34 39 41 41 40 40 40 42 45 48 49
312 312 313 313 314 313 312 312 313 313 313 312 311 311 311 311 311 310 308 306 305 304 304 303 301 299 300 309 315 316 315 314 316 320 325 326 326 326 328 328 326 322 316 309 302 296 290 288 290 294 297 296 294 294 298 303 307 308 312 316 318 317 314 315 318 323 330 338 346 352 359 7 14 22 33 39 41 41 42 42 40 40 41 44 47 49
314 314 313 313 313 313 312 313 313 313 313 313 312 312 312 311 311 310 309 307 305 304 303 302 300 300 305 311 314 314 313 315 320 324 326 325 325 327 330 332 331 328 321 313 306 298 291 287 285 285 289 293 300 311 319 319 315 312 311 314 317 317 315 317 326 337 348 354 357 0 6 11 19 28 40 46 46 43 41 41 42 44 44 47 49 51
314 313 313 313 313 312 312 313 313 313 313 313 312 312 312 312 311 310 309 308 306 304 303 302 301 304 309 313 313 314 315 318 322 324 324 324 326 330 335 336 335 333 329 324 317 310 303 296 289 287 294 314 331 333 330 326 320 314 311 314 317 318 318 322 334 349 1 7 9 11 14 15 16 24 38 50 51 47 41 39 41 44 48 50 53 54
313 312 312 312 312 312 312 313 313 313 312 312 312 312 313 312 311 309 308 307 306 303 301 301 303 307 311 313 314 315 318 320 321 322 322 324 329 335 339 340 339 337 335 334 333 332 327 317 315 343 2 3 356 342 332 327 324 321 320 321 322 322 322 329 344 358 8 13 17 22 25 27 29 35 46 55 55 50 44 39 39 42 47 53 57 58
313 311 312 312 312 312 311 312 312 311 311 310 310 311 312 312 311 310 308 307 305 302 300 301 304 308 311 313 315 317 320 321 321 321 322 326 333 340 344 345 344 342 340 340 342 343 341 359 76 51 31 21 7 351 337 331 330 332 332 333 333 332 331 339 353 6 14 18 23 29 34 35 37 44 53 59 59 54 49 42 38 38 45 53 59 61
313 312 312 312 312 311 311 311 311 310 309 309 309 309 310 310 311 310 310 309 306 303 300 302 306 310 313 314 317 319 320 320 320 320 322 327 337 346 349 349 347 346 344 342 343 344 348 80 81 36 19 14 10 2 347 338 336 339 339 340 342 344 345 351 4 16 23 27 32 36 38 38 37 40 48 56 59 56 51 45 37 35 41 51 57 61